EW2664 Davie FL US current weather conditions

sailwx.info

Wind from 027 at 2 knots gusting 6

Air temperature 15.0° C
Dewpoint 11.6° C

Last reported at 2020-Jan-22 23:00 UTC.
Time now 2020-Jan-23 00:12 UTC

Location: N 26°02' W 080°21'.
View on Google Maps.

See reports from other nearby stations

  
Tides and Currents Weather Stations Pressure Air Temp Water Temp Dewpoint Dewpoint Depression Visibility Wind Speed Wind Dir Waves Ship Positions
date/time (UTC)wind fromknots sea level pressurealtimeterstation pressurevisibilityair tempwater tempwave heightnotes
2020-Jan-22 23:00 027 2 gusting 6 15.0
2020-Jan-22 22:50 343 1 gusting 5 15.0
2020-Jan-22 22:45 347 1 gusting 7 15.0
2020-Jan-22 22:40 319 3 gusting 7 15.0
2020-Jan-22 22:35 360 2 gusting 6 15.0
2020-Jan-22 22:30 302 2 gusting 6 15.0
2020-Jan-22 22:25 343 2 gusting 5 15.0
2020-Jan-22 22:20 338 1 gusting 7 15.0
2020-Jan-22 22:15 330 2 gusting 7 15.0
2020-Jan-22 22:10 293 1 gusting 5 15.0
2020-Jan-22 22:05 275 1 gusting 6 14.4
2020-Jan-22 22:00 350 2 gusting 6 14.4
2020-Jan-22 21:55 298 1 gusting 5 14.4
2020-Jan-22 21:50 308 1 gusting 3 14.4
2020-Jan-22 21:45 340 1 gusting 6 14.4
2020-Jan-22 21:40 005 2 gusting 6 14.4
2020-Jan-22 21:35 346 3 gusting 6 15.0
2020-Jan-22 21:30 355 2 gusting 7 15.6
2020-Jan-22 21:25 334 3 gusting 9 15.6
2020-Jan-22 21:20 338 3 gusting 9 16.1
2020-Jan-22 21:15 344 2 gusting 7 16.1
2020-Jan-22 21:10 328 1 gusting 7 16.1
2020-Jan-22 21:05 338 3 gusting 6 16.1
2020-Jan-22 21:00 348 284 gusting 6 16.1
2020-Jan-22 20:45 355 3 gusting 8 16.1
2020-Jan-22 20:40 337 2 gusting 9 16.1
2020-Jan-22 20:35 336 4 gusting 9 16.1
2020-Jan-22 20:30 351 3 gusting 7 16.1
2020-Jan-22 20:25 011 2 gusting 9 16.1
2020-Jan-22 20:20 292 2 gusting 11 16.1
2020-Jan-22 20:15 295 5 gusting 11 15.6
2020-Jan-22 20:05 326 4 gusting 10 15.6
2020-Jan-22 20:00 022 3 gusting 8 15.6
2020-Jan-22 19:55 336 2 gusting 6 15.6
2020-Jan-22 19:50 343 2 gusting 11 15.6
2020-Jan-22 19:45 331 4 gusting 11 15.6
2020-Jan-22 19:40 331 4 gusting 12 15.6
2020-Jan-22 19:35 010 3 gusting 11 15.6
2020-Jan-22 19:30 342 4 gusting 11 15.0
2020-Jan-22 19:25 320 3 gusting 16 15.0
2020-Jan-22 19:20 276 6 gusting 16 15.0
2020-Jan-22 19:15 339 4 gusting 11 15.0
2020-Jan-22 19:10 277 4 gusting 14 15.0
2020-Jan-22 19:05 350 3 gusting 13 14.4
2020-Jan-22 19:00 281 5 gusting 14 14.4
2020-Jan-22 18:55 280 5 gusting 14 14.4
2020-Jan-22 18:50 342 3 gusting 11 14.4
2020-Jan-22 18:45 360 2 gusting 10 14.4
2020-Jan-22 18:40 344 4 gusting 9 14.4
2020-Jan-22 18:35 327 4 gusting 10 14.4
2020-Jan-22 18:30 332 5 gusting 13 14.4
2020-Jan-22 18:25 313 5 gusting 13 14.4
2020-Jan-22 18:20 323 3 gusting 16 14.4
2020-Jan-22 18:15 310 6 gusting 13 13.9
2020-Jan-22 18:10 355 5 gusting 17 13.9
2020-Jan-22 18:05 340 4 gusting 17 13.9
2020-Jan-22 18:00 313 5 gusting 11 13.9
2020-Jan-22 17:55 015 2 gusting 12 13.9
2020-Jan-22 17:50 334 6 gusting 13 13.3
2020-Jan-22 17:45 278 5 gusting 13 13.3
2020-Jan-22 17:40 347 6 gusting 13 12.8
2020-Jan-22 17:35 329 5 gusting 10 12.8
2020-Jan-22 17:30 346 3 gusting 13 12.8
2020-Jan-22 17:25 295 6 gusting 13 12.2
2020-Jan-22 17:20 309 4 gusting 12 12.2
2020-Jan-22 17:15 286 4 gusting 12 12.2
2020-Jan-22 17:10 296 4 gusting 12 12.2
2020-Jan-22 17:05 311 3 gusting 12 12.2
2020-Jan-22 17:00 333 3 gusting 11 12.2
2020-Jan-22 16:55 329 5 gusting 13 12.2
2020-Jan-22 16:50 334 3 gusting 13 12.2
2020-Jan-22 16:45 275 3 gusting 11 11.7
2020-Jan-22 16:40 311 6 gusting 12 11.7
2020-Jan-22 16:35 313 5 gusting 12 11.1
2020-Jan-22 16:30 276 2 gusting 9 11.1
2020-Jan-22 16:25 308 4 gusting 11 10.6
2020-Jan-22 16:20 336 5 gusting 11 10.6
2020-Jan-22 16:15 325 3 gusting 11 10.6
2020-Jan-22 16:10 346 3 gusting 7 10.6
2020-Jan-22 16:05 292 2 gusting 7 10.0
2020-Jan-22 16:00 290 2 gusting 13 9.4
2020-Jan-22 15:55 322 6 gusting 13 9.4
2020-Jan-22 15:50 293 6 gusting 11 8.9
2020-Jan-22 15:45 336 3 gusting 13 8.9
2020-Jan-22 15:40 333 4 gusting 13 8.9
2020-Jan-22 15:35 338 4 gusting 12 8.3
2020-Jan-22 15:30 339 4 gusting 12 8.3
2020-Jan-22 15:25 306 3 gusting 13 8.3
2020-Jan-22 15:20 268 2 gusting 13 8.3
2020-Jan-22 15:15 360 2 gusting 8 7.8
2020-Jan-22 15:10 355 3 gusting 13 7.2
2020-Jan-22 15:05 284 6 gusting 13 7.2
2020-Jan-22 15:00 343 3 gusting 11 7.2
2020-Jan-22 14:55 334 3 gusting 11 6.7
2020-Jan-22 14:50 291 4 gusting 11 6.7
2020-Jan-22 14:45 280 4 gusting 10 6.7
2020-Jan-22 14:40 295 4 gusting 10 6.7
2020-Jan-22 14:35 348 3 gusting 12 6.1
2020-Jan-22 14:30 313 3 gusting 12 6.1
2020-Jan-22 14:25 340 3 gusting 9 5.6
2020-Jan-22 14:20 287 2 gusting 14 5.6
2020-Jan-22 14:15 343 6 gusting 10 5.6
2020-Jan-22 14:10 339 4 gusting 8 5.0
2020-Jan-22 14:05 297 2 gusting 11 5.0
2020-Jan-22 14:00 274 5 gusting 11 5.0
2020-Jan-22 13:55 005 2 gusting 9 5.0
2020-Jan-22 13:50 311 2 gusting 9 4.4
2020-Jan-22 13:45 346 2 gusting 9 4.4
2020-Jan-22 13:40 349 3 gusting 8 3.9
2020-Jan-22 13:35 299 3 gusting 7 3.9
2020-Jan-22 13:30 305 2 gusting 10 3.9
2020-Jan-22 13:25 005 3 gusting 10 3.9
2020-Jan-22 13:20 286 3 gusting 9 3.3
2020-Jan-22 13:15 333 2 gusting 7 3.3
2020-Jan-22 13:10 321 1 gusting 8 3.3
2020-Jan-22 13:05 322 2 gusting 10 3.3
2020-Jan-22 13:00 328 5 gusting 10 2.8
2020-Jan-22 12:55 333 2 gusting 11 2.8
2020-Jan-22 12:50 341 4 gusting 11 2.8
2020-Jan-22 12:45 299 3 gusting 9 2.8
2020-Jan-22 12:40 319 1 gusting 7 2.8
2020-Jan-22 12:35 323 2 gusting 7 2.8
2020-Jan-22 12:30 277 2 gusting 13 2.8
2020-Jan-22 12:25 350 1 gusting 13 2.8
2020-Jan-22 12:20 355 2 gusting 8 2.8
2020-Jan-22 12:15 306 1 gusting 7 2.8
2020-Jan-22 12:10 312 2 gusting 7 2.8
2020-Jan-22 12:05 321 1 gusting 7 2.8
2020-Jan-22 12:00 005 2 gusting 8 2.8
2020-Jan-22 11:55 296 1 gusting 9 2.8
2020-Jan-22 11:50 303 2 gusting 12 2.8
2020-Jan-22 11:45 292 1 gusting 10 2.8
2020-Jan-22 11:40 284 2 gusting 8 2.8
2020-Jan-22 11:35 327 1 gusting 9 2.8
2020-Jan-22 11:30 289 1 gusting 9 2.8
2020-Jan-22 11:25 288 3 gusting 8 2.8
2020-Jan-22 11:20 333 2 gusting 8 2.8
2020-Jan-22 11:15 323 2 gusting 9 2.8
2020-Jan-22 11:10 303 2 gusting 9 2.8
2020-Jan-22 11:05 295 1 gusting 8 2.8
2020-Jan-22 11:00 317 3 gusting 8 2.8
2020-Jan-22 10:55 336 3 gusting 7 2.8
2020-Jan-22 10:50 350 1 gusting 7 2.8
2020-Jan-22 10:45 312 2 gusting 9 3.3
2020-Jan-22 10:40 348 2 gusting 10 3.3
2020-Jan-22 10:35 320 3 gusting 8 3.3
2020-Jan-22 10:30 336 1 gusting 8 3.3
2020-Jan-22 10:25 305 1 gusting 8 3.3
2020-Jan-22 10:20 340 2 gusting 13 3.3
2020-Jan-22 10:15 291 5 gusting 13 3.3
2020-Jan-22 10:10 306 2 gusting 10 3.3
2020-Jan-22 10:05 252 3 gusting 9 3.3
2020-Jan-22 10:00 310 1 gusting 13 3.9
2020-Jan-22 09:55 311 2 gusting 11 3.9
2020-Jan-22 09:50 257 1 gusting 11 3.9
2020-Jan-22 09:45 335 3 gusting 12 3.9
2020-Jan-22 09:40 295 2 gusting 10 3.9
2020-Jan-22 09:35 355 3 gusting 9 3.9
2020-Jan-22 09:30 355 2 gusting 10 3.9
2020-Jan-22 09:25 344 2 gusting 10 3.9
2020-Jan-22 09:20 309 1 gusting 11 3.9
2020-Jan-22 09:15 309 4 gusting 11 4.4
2020-Jan-22 09:10 338 2 gusting 12 4.4
2020-Jan-22 09:05 328 3 gusting 10 4.4
2020-Jan-22 09:00 019 3 gusting 9 4.4
2020-Jan-22 08:55 292 1 gusting 9 4.4
2020-Jan-22 08:50 355 2 gusting 14 4.4
2020-Jan-22 08:45 323 4 gusting 14 4.4
2020-Jan-22 08:40 360 2 gusting 10 4.4
2020-Jan-22 08:35 345 2 gusting 10 4.4
2020-Jan-22 08:30 317 3 gusting 9 4.4
2020-Jan-22 08:25 291 2 gusting 13 4.4
2020-Jan-22 08:20 311 5 gusting 13 4.4
2020-Jan-22 08:15 281 2 gusting 9 4.4
2020-Jan-22 08:10 334 2 gusting 7 5.0
2020-Jan-22 08:05 290 1 gusting 6 5.0
2020-Jan-22 08:00 333 2 gusting 7 5.0
2020-Jan-22 07:55 284 2 gusting 8 5.0
2020-Jan-22 07:50 303 2 gusting 8 5.0
2020-Jan-22 07:45 306 1 gusting 8 5.0
2020-Jan-22 07:40 323 1 gusting 6 5.0
2020-Jan-22 07:35 256 1 gusting 7 5.0
2020-Jan-22 07:30 239 2 gusting 7 5.0
2020-Jan-22 07:25 306 1 gusting 6 5.0
2020-Jan-22 07:20 300 0 gusting 6 5.6
2020-Jan-22 07:15 284 1 gusting 6 5.6
2020-Jan-22 07:10 304 2 gusting 6 5.6
2020-Jan-22 07:05 326 2 gusting 7 5.6
2020-Jan-22 07:00 306 2 gusting 8 6.1
2020-Jan-22 06:55 273 2 gusting 8 6.1
2020-Jan-22 06:50 296 1 gusting 9 6.7
2020-Jan-22 06:45 344 2 gusting 9 6.7
2020-Jan-22 06:40 281 2 gusting 9 7.2
2020-Jan-22 06:35 305 2 gusting 9 7.2
2020-Jan-22 06:30 009 2 gusting 7 7.2
2020-Jan-22 06:25 339 2 gusting 9 7.2
2020-Jan-22 06:20 346 2 gusting 9 7.2
2020-Jan-22 06:15 333 2 gusting 7 7.2
2020-Jan-22 06:10 360 2 gusting 6 7.2
2020-Jan-22 06:05 285 1 gusting 9 7.2
2020-Jan-22 06:00 333 1 gusting 9 7.2
2020-Jan-22 05:55 265 2 gusting 8 7.2
2020-Jan-22 05:50 344 3 gusting 9 7.2
2020-Jan-22 05:45 355 4 gusting 12 7.2
2020-Jan-22 05:40 329 3 gusting 12 7.2
2020-Jan-22 05:35 355 2 gusting 12 7.8
2020-Jan-22 05:30 273 3 gusting 8 7.8
2020-Jan-22 05:25 305 3 gusting 9 7.8
2020-Jan-22 05:20 291 2 gusting 9 7.8
2020-Jan-22 05:15 340 3 gusting 8 7.8
2020-Jan-22 05:10 334 2 gusting 8 7.8
2020-Jan-22 05:05 347 3 gusting 8 7.8
2020-Jan-22 05:00 005 3 gusting 8 7.8
2020-Jan-22 04:55 304 2 gusting 9 7.8
2020-Jan-22 04:50 013 3 gusting 6 7.8
2020-Jan-22 04:45 349 3 gusting 12 7.8
2020-Jan-22 04:40 342 4 gusting 12 7.8
2020-Jan-22 04:35 344 2 gusting 7 7.8
2020-Jan-22 04:30 351 2 gusting 11 7.8
2020-Jan-22 04:25 355 3 gusting 11 7.8
2020-Jan-22 04:20 355 2 gusting 6 7.8
2020-Jan-22 04:15 009 4 gusting 6 7.8
2020-Jan-22 04:10 321 2 gusting 10 7.8
2020-Jan-22 04:05 020 4 gusting 10 7.8
2020-Jan-22 04:00 340 2 gusting 7 7.8
2020-Jan-22 03:55 330 3 gusting 7 8.3
2020-Jan-22 03:50 038 3 gusting 8 8.3
2020-Jan-22 03:45 317 4 gusting 10 8.3
2020-Jan-22 03:40 325 2 gusting 13 8.3
2020-Jan-22 03:35 009 4 gusting 13 8.3
2020-Jan-22 03:30 344 3 gusting 10 8.3
2020-Jan-22 03:25 342 3 gusting 11 8.9
2020-Jan-22 03:20 360 4 gusting 11 8.9
2020-Jan-22 03:15 339 3 gusting 10 8.9
2020-Jan-22 03:10 348 4 gusting 11 9.4
2020-Jan-22 03:05 339 5 gusting 11 9.4
2020-Jan-22 03:00 351 2 gusting 7 10.0
2020-Jan-22 02:55 325 2 gusting 7 10.0
2020-Jan-22 02:50 342 3 gusting 7 10.0
2020-Jan-22 02:45 347 1 gusting 5 10.0
2020-Jan-22 02:40 032 2 gusting 6 10.6
2020-Jan-22 02:35 360 2 gusting 8 10.6
2020-Jan-22 02:30 351 4 gusting 10 10.6
2020-Jan-22 02:25 360 3 gusting 10 10.6
2020-Jan-22 02:20 033 4 gusting 7 10.6
2020-Jan-22 02:15 343 3 gusting 10 11.1
2020-Jan-22 02:10 009 4 gusting 10 11.1
2020-Jan-22 02:05 355 3 gusting 8 11.1
2020-Jan-22 02:00 333 4 gusting 8 11.1
2020-Jan-22 01:55 360 1 gusting 10 11.1
2020-Jan-22 01:50 355 3 gusting 10 11.7
2020-Jan-22 01:45 298 2 gusting 10 11.7
2020-Jan-22 01:40 005 4 gusting 10 11.7
2020-Jan-22 01:35 344 1 gusting 8 11.7
2020-Jan-22 01:30 336 1 gusting 8 11.7
2020-Jan-22 01:25 005 2 gusting 6 11.7
2020-Jan-22 01:20 024 2 gusting 10 12.2
2020-Jan-22 01:15 330 3 gusting 10 12.2
2020-Jan-22 01:10 331 3 gusting 10 12.2
2020-Jan-22 01:05 349 2 gusting 10 12.2
2020-Jan-22 01:00 349 1 gusting 7 12.2
2020-Jan-22 00:55 355 2 gusting 7 12.2
2020-Jan-22 00:50 351 2 gusting 11 12.2
2020-Jan-22 00:45 350 2 gusting 6 12.2
2020-Jan-22 00:40 010 2 gusting 5 12.2
2020-Jan-22 00:35 339 3 gusting 8 12.8
2020-Jan-22 00:30 360 3 gusting 8 12.8
2020-Jan-22 00:25 005 2 gusting 10 12.8
2020-Jan-22 00:20 304 3 gusting 9 12.8
2020-Jan-22 00:15 343 3 gusting 7 12.8
2020-Jan-22 00:10 315 2 gusting 13 12.8
2020-Jan-22 00:05 336 2 gusting 13 12.8
2020-Jan-22 00:00 338 2 gusting 13 13.3
2020-Jan-21 23:55 355 2 gusting 13 13.3
2020-Jan-21 23:50 346 4 gusting 9 13.3
2020-Jan-21 23:45 309 2 gusting 6 13.3
2020-Jan-21 23:40 348 2 gusting 6 13.3
2020-Jan-21 23:35 319 3 gusting 11 13.3
2020-Jan-21 23:30 005 2 gusting 7 13.9
2020-Jan-21 23:25 337 3 gusting 7 13.9
2020-Jan-21 23:20 017 2 gusting 7 13.9
2020-Jan-21 23:15 306 2 gusting 10 13.9
2020-Jan-21 23:10 009 4 gusting 10 13.9
2020-Jan-21 23:05 327 3 gusting 10 14.4
2020-Jan-21 23:00 307 1 gusting 10 14.4
2020-Jan-21 22:55 262 4 gusting 10 14.4
2020-Jan-21 22:50 262 2 gusting 8 14.4
2020-Jan-21 22:45 334 2 gusting 6 15.0
2020-Jan-21 22:40 020 1 gusting 7 15.0
2020-Jan-21 22:35 340 4 gusting 7 15.0
2020-Jan-21 22:30 355 4 gusting 8 15.0
2020-Jan-21 22:25 355 2 gusting 11 15.6
2020-Jan-21 22:20 348 3 gusting 10 15.6
2020-Jan-21 22:15 347 4 gusting 10 15.6
2020-Jan-21 22:10 331 2 gusting 11 15.6
2020-Jan-21 22:05 347 4 gusting 11 15.6
2020-Jan-21 22:00 298 2 gusting 8 16.1
2020-Jan-21 21:55 302 2 gusting 10 16.1
2020-Jan-21 21:50 299 4 gusting 10 16.1
2020-Jan-21 21:45 355 3 gusting 8 16.1
2020-Jan-21 21:40 341 4 gusting 8 16.1
2020-Jan-21 21:35 005 3 gusting 8 16.1
2020-Jan-21 21:30 315 4 gusting 12 16.1
2020-Jan-21 21:25 346 4 gusting 12 16.7
2020-Jan-21 21:20 331 5 gusting 13 16.7
2020-Jan-21 21:15 327 4 gusting 13 16.7
2020-Jan-21 21:10 342 5 gusting 12 16.7
2020-Jan-21 21:05 346 3 gusting 12 16.7
2020-Jan-21 21:00 005 4 gusting 13 16.7
2020-Jan-21 20:55 355 3 gusting 10 17.2
2020-Jan-21 20:50 330 4 gusting 10 17.2
2020-Jan-21 20:45 355 5 gusting 11 17.2
2020-Jan-21 20:05 339 4 gusting 10 18.3
2020-Jan-21 20:00 313 2 gusting 8 18.3
2020-Jan-21 19:55 340 3 gusting 10 17.8
2020-Jan-21 19:50 021 5 gusting 10 18.3
2020-Jan-21 19:45 038 3 gusting 6 18.3
2020-Jan-21 19:40 333 3 gusting 7 18.3
2020-Jan-21 19:35 267 3 gusting 10 18.3
2020-Jan-21 19:30 306 4 gusting 10 17.8
2020-Jan-21 19:25 325 4 gusting 10 18.3
2020-Jan-21 19:20 021 3 gusting 10 18.3
2020-Jan-21 19:15 013 2 gusting 10 18.3
2020-Jan-21 19:10 278 1 gusting 13 17.8
2020-Jan-21 19:05 339 3 gusting 13 17.8
2020-Jan-21 19:00 296 4 gusting 9 17.8
2020-Jan-21 18:55 339 1 gusting 9 17.8
2020-Jan-21 18:50 305 4 gusting 10 17.8
2020-Jan-21 18:45 342 2 gusting 10 17.8
2020-Jan-21 18:40 345 3 gusting 9 17.8
2020-Jan-21 18:35 350 2 gusting 12 17.8
2020-Jan-21 18:30 342 3 gusting 12 17.8
2020-Jan-21 18:25 349 2 gusting 11 17.8
2020-Jan-21 18:20 340 4 gusting 11 17.8
2020-Jan-21 18:15 316 5 gusting 11 17.8
2020-Jan-21 18:10 318 3 gusting 11 17.8
2020-Jan-21 18:05 282 4 gusting 12 17.8
2020-Jan-21 18:00 340 4 gusting 12 17.8
2020-Jan-21 17:55 005 3 gusting 12 17.8
2020-Jan-21 17:50 340 4 gusting 12 17.2
2020-Jan-21 17:45 278 3 gusting 9 17.2
2020-Jan-21 17:40 340 3 gusting 10 17.8
2020-Jan-21 17:35 298 2 gusting 12 17.2
2020-Jan-21 17:30 313 4 gusting 12 17.2
2020-Jan-21 17:25 304 5 gusting 12 17.2
2020-Jan-21 17:20 345 3 gusting 13 17.2
2020-Jan-21 17:15 296 4 gusting 13 17.2
2020-Jan-21 17:10 302 3 gusting 13 17.2
2020-Jan-21 17:05 317 3 gusting 10 17.2
2020-Jan-21 17:00 342 2 gusting 6 17.2
2020-Jan-21 16:55 342 2 gusting 6 17.2
2020-Jan-21 16:50 341 2 gusting 9 17.2
2020-Jan-21 16:45 333 1 gusting 9 17.2
2020-Jan-21 16:40 037 2 gusting 7 17.2
2020-Jan-21 16:35 025 2 gusting 7 17.2
2020-Jan-21 16:30 339 3 gusting 8 17.2
2020-Jan-21 16:25 324 3 gusting 8 17.2
2020-Jan-21 16:20 315 2 gusting 9 16.7
2020-Jan-21 16:15 011 2 gusting 11 16.7
2020-Jan-21 16:10 347 3 gusting 9 16.7
2020-Jan-21 16:05 346 1 gusting 8 16.7
2020-Jan-21 16:00 287 2 gusting 7 16.7
2020-Jan-21 15:55 355 3 gusting 7 16.7
2020-Jan-21 15:50 051 2 gusting 5 16.7
2020-Jan-21 15:45 020 2 gusting 7 16.7
2020-Jan-21 15:40 311 2 gusting 7 16.7
2020-Jan-21 15:35 317 2 gusting 7 16.7
2020-Jan-21 15:30 005 1 gusting 8 16.1
2020-Jan-21 15:25 343 4 gusting 7 16.1
2020-Jan-21 15:20 014 2 gusting 6 16.1
2020-Jan-21 15:15 314 2 gusting 4 16.1
2020-Jan-21 15:10 320 2 gusting 4 16.1
2020-Jan-21 15:05 346 1 gusting 3 16.1
2020-Jan-21 15:00 338 1 gusting 5 15.6
2020-Jan-21 14:55 013 2 gusting 5 15.6
2020-Jan-21 14:50 355 3 gusting 5 15.0
2020-Jan-21 14:45 355 2 gusting 5 15.0
2020-Jan-21 14:40 348 2 gusting 5 15.0
2020-Jan-21 14:35 342 2 gusting 5 15.0
2020-Jan-21 14:30 005 2 gusting 7 14.4
2020-Jan-21 14:25 034 2 gusting 7 14.4
2020-Jan-21 14:20 046 2 gusting 5 14.4
2020-Jan-21 14:15 355 2 gusting 5 14.4
2020-Jan-21 14:10 336 1 gusting 5 13.9
2020-Jan-21 14:05 335 2 gusting 6 13.9
2020-Jan-21 14:00 360 3 gusting 6 13.9
2020-Jan-21 13:55 320 1 gusting 7 13.3
2020-Jan-21 13:50 022 2 gusting 6 13.3
2020-Jan-21 13:45 324 2 gusting 8 13.3
2020-Jan-21 13:40 011 3 gusting 7 12.8
2020-Jan-21 13:35 355 2 gusting 8 12.8
2020-Jan-21 13:30 033 2 gusting 8 12.8
2020-Jan-21 13:25 355 1 gusting 5 12.8
2020-Jan-21 13:20 355 2 gusting 5 12.8
2020-Jan-21 13:15 027 2 gusting 4 12.8
2020-Jan-21 13:10 296 0 gusting 4 12.2
2020-Jan-21 13:05 342 1 gusting 5 12.2
2020-Jan-21 13:00 042 1 gusting 5 12.2
2020-Jan-21 12:55 341 2 gusting 5 12.2
2020-Jan-21 12:50 338 2 gusting 5 11.7
2020-Jan-21 12:45 005 2 gusting 5 11.7
2020-Jan-21 12:40 005 2 gusting 6 11.7
2020-Jan-21 12:35 360 1 gusting 5 11.7
2020-Jan-21 12:30 021 1 gusting 4 11.7
2020-Jan-21 12:25 302 1 gusting 3 11.7
2020-Jan-21 12:20 005 1 gusting 3 11.7
2020-Jan-21 12:15 328 0 gusting 4 11.7
2020-Jan-21 12:10 336 2 gusting 4 11.7
2020-Jan-21 12:05 345 1 gusting 3 11.7
2020-Jan-21 12:00 345 1 gusting 4 11.7
2020-Jan-21 11:55 342 2 gusting 5 11.7
2020-Jan-21 11:50 005 2 gusting 5 11.7
2020-Jan-21 11:45 020 2 gusting 5 11.7
2020-Jan-21 11:40 343 2 gusting 5 11.7
2020-Jan-21 11:35 345 1 gusting 5 11.7
2020-Jan-21 11:30 337 2 gusting 4 11.7
2020-Jan-21 11:25 042 1 gusting 4 11.7
2020-Jan-21 11:20 013 2 gusting 5 11.7
2020-Jan-21 11:15 336 2 gusting 5 11.7
2020-Jan-21 11:10 338 3 gusting 9 11.7
2020-Jan-21 11:05 344 2 gusting 5 11.7
2020-Jan-21 11:00 026 1 gusting 6 11.7
2020-Jan-21 10:55 340 3 gusting 6 11.7
2020-Jan-21 10:50 337 3 gusting 6 11.7
2020-Jan-21 10:45 355 2 gusting 5 11.7
2020-Jan-21 10:40 333 2 gusting 5 11.7
2020-Jan-21 10:35 338 2 gusting 5 11.7
2020-Jan-21 10:30 347 2 gusting 4 11.7
2020-Jan-21 10:25 340 2 gusting 6 11.7
2020-Jan-21 10:20 010 3 gusting 8 11.7
2020-Jan-21 10:15 009 1 gusting 5 11.7
2020-Jan-21 10:10 350 2 gusting 5 11.7
2020-Jan-21 10:05 005 1 gusting 5 11.7
2020-Jan-21 10:00 345 2 gusting 6 11.7
2020-Jan-21 09:55 005 3 gusting 6 11.7
2020-Jan-21 09:50 325 2 gusting 6 11.7
2020-Jan-21 09:45 346 3 gusting 6 11.7
2020-Jan-21 09:40 005 1 gusting 5 11.7
2020-Jan-21 09:35 350 1 gusting 5 11.7
2020-Jan-21 09:30 344 1 gusting 5 11.7
2020-Jan-21 09:25 355 2 gusting 7 12.2
2020-Jan-21 09:20 346 3 gusting 7 12.2
2020-Jan-21 09:15 340 2 gusting 8 12.2
2020-Jan-21 09:10 355 2 gusting 8 12.2
2020-Jan-21 09:05 319 3 gusting 8 12.2
2020-Jan-21 09:00 355 2 gusting 5 12.2
2020-Jan-21 08:55 324 2 gusting 5 12.2
2020-Jan-21 08:50 360 1 gusting 7 12.2
2020-Jan-21 08:45 058 2 gusting 7 12.2
2020-Jan-21 08:40 333 1 gusting 6 12.2
2020-Jan-21 08:35 344 2 gusting 6 12.2
2020-Jan-21 08:30 337 2 gusting 6 12.2
2020-Jan-21 08:25 344 1 gusting 3 12.2
2020-Jan-21 08:20 348 1 gusting 4 12.2
2020-Jan-21 08:15 013 1 gusting 4 12.2
2020-Jan-21 08:10 336 1 gusting 3 12.2
2020-Jan-21 08:05 343 1 gusting 2 12.8
2020-Jan-21 08:00 350 1 gusting 6 12.8
2020-Jan-21 07:55 344 1 gusting 6 12.8
2020-Jan-21 07:50 306 1 gusting 3 12.8
2020-Jan-21 07:45 037 0 gusting 4 12.8
2020-Jan-21 07:40 011 2 gusting 5 12.8
2020-Jan-21 07:35 329 2 gusting 5 12.8
2020-Jan-21 07:30 331 3 gusting 5 12.8
2020-Jan-21 07:25 340 1 gusting 4 12.8
2020-Jan-21 07:20 330 1 gusting 8 12.8
2020-Jan-21 07:15 309 2 gusting 8 13.3
2020-Jan-21 07:10 360 1 gusting 4 13.3
2020-Jan-21 07:05 321 1 gusting 4 13.3
2020-Jan-21 07:00 346 1 gusting 2 13.3
2020-Jan-21 06:55 029 1 gusting 2 13.3
2020-Jan-21 06:50 019 0 gusting 5 13.3
2020-Jan-21 06:45 343 1 gusting 5 13.3
2020-Jan-21 06:40 360 2 gusting 4 13.3
2020-Jan-21 06:35 355 2 gusting 4 13.3
2020-Jan-21 06:30 355 1 gusting 3 13.3
2020-Jan-21 06:25 005 2 gusting 5 13.3
2020-Jan-21 06:20 348 2 gusting 5 13.3
2020-Jan-21 06:15 299 1 gusting 3 13.3
2020-Jan-21 06:10 016 1 gusting 3 13.3
2020-Jan-21 06:05 325 1 gusting 5 13.3
2020-Jan-21 06:00 021 1 gusting 2 13.3
2020-Jan-21 05:55 338 0 gusting 2 13.9
2020-Jan-21 05:50 348 0 gusting 2 13.9
2020-Jan-21 05:45 005 0 gusting 2 13.9
2020-Jan-21 05:40 005 0 gusting 3 13.9
2020-Jan-21 05:35 351 0 gusting 2 13.9
2020-Jan-21 05:30 010 0 gusting 3 13.9
2020-Jan-21 05:25 017 0 gusting 3 13.9
2020-Jan-21 05:20 349 1 gusting 3 13.9
2020-Jan-21 05:15 005 1 gusting 5 13.9
2020-Jan-21 05:10 333 2 gusting 5 13.9
2020-Jan-21 05:05 039 1 gusting 2 13.9
2020-Jan-21 05:00 360 1 gusting 2 13.9
2020-Jan-21 04:55 015 13.9
2020-Jan-21 04:50 005 13.9
2020-Jan-21 04:45 360 0 gusting 2 14.4
2020-Jan-21 04:40 341 1 gusting 3 14.4
2020-Jan-21 04:35 355 0 gusting 3 14.4
2020-Jan-21 04:30 021 0 gusting 2 14.4
2020-Jan-21 04:25 025 0 gusting 2 14.4
2020-Jan-21 04:20 028 14.4
2020-Jan-21 04:15 032 14.4
2020-Jan-21 04:10 032 14.4
2020-Jan-21 04:05 028 0 gusting 2 14.4
2020-Jan-21 04:00 040 0 gusting 3 15.0
2020-Jan-21 03:55 045 0 gusting 3 15.0
2020-Jan-21 03:50 043 15.0
2020-Jan-21 03:45 019 1 gusting 6 15.0
2020-Jan-21 03:40 030 0 gusting 2 15.0
2020-Jan-21 03:35 023 0 gusting 4 15.0
2020-Jan-21 03:30 024 1 gusting 7 15.0
2020-Jan-21 03:25 024 1 gusting 7 15.0
2020-Jan-21 03:20 027 2 gusting 6 15.0
2020-Jan-21 03:15 034 1 gusting 6 15.6
2020-Jan-21 03:10 017 0 gusting 6 15.6
2020-Jan-21 03:05 041 1 gusting 6 15.6
2020-Jan-21 03:00 039 1 gusting 4 15.6
2020-Jan-21 02:55 036 2 gusting 6 15.6
2020-Jan-21 02:50 014 2 gusting 6 15.6
2020-Jan-21 02:45 058 0 gusting 2 15.6
2020-Jan-21 02:40 040 15.6
2020-Jan-21 02:35 040 1 gusting 3 16.1
2020-Jan-21 02:30 049 1 gusting 3 16.1
2020-Jan-21 02:25 049 1 gusting 4 16.1
2020-Jan-21 02:20 038 1 gusting 4 16.1
2020-Jan-21 02:15 046 1 gusting 3 16.1
2020-Jan-21 02:10 028 1 gusting 5 16.1
2020-Jan-21 02:05 028 1 gusting 7 16.1
2020-Jan-21 02:00 013 2 gusting 7 16.7
2020-Jan-21 01:55 009 3 gusting 7 16.7
2020-Jan-21 01:50 038 2 gusting 6 16.7
2020-Jan-21 01:45 026 2 gusting 5 16.7
2020-Jan-21 01:40 033 1 gusting 6 16.7
2020-Jan-21 01:35 034 2 gusting 8 16.7
2020-Jan-21 01:30 046 3 gusting 8 17.2
2020-Jan-21 01:25 055 4 gusting 8 17.2
2020-Jan-21 01:20 029 3 gusting 7 17.2
2020-Jan-21 01:15 010 2 gusting 6 17.2
2020-Jan-21 01:10 350 1 gusting 4 17.8
2020-Jan-21 01:05 351 1 gusting 5 17.8
2020-Jan-21 01:00 005 2 gusting 5 17.8
2020-Jan-21 00:55 355 2 gusting 5 17.8
2020-Jan-21 00:50 036 1 gusting 5 17.8
2020-Jan-21 00:45 028 0 gusting 7 17.8
2020-Jan-21 00:40 014 1 gusting 7 17.8
2020-Jan-21 00:35 013 1 gusting 3 17.8
2020-Jan-21 00:30 053 1 gusting 3 17.8
2020-Jan-21 00:25 345 1 gusting 3 17.8
2020-Jan-21 00:20 350 1 gusting 3 17.8
2020-Jan-21 00:15 287 1 gusting 5 18.3
2020-Jan-21 00:10 327 2 gusting 5 18.3
2020-Jan-21 00:05 327 1 gusting 3 18.3
2020-Jan-21 00:00 336 0 gusting 6 18.3